Monterrey Gen Maria, Mexico

2:42 PM CDT on June 27, 2017 (GMT -0500)
Gen Mariano Escobedo International

Weather History for MMMY - October, 2013

Change the Weather History Date:

Monday, October 28, 2013

  Actual Average Record
Temperature  
Mean Temperature 76 °F -  
Max Temperature 84 °F 79 °F 96 °F (2015)
Min Temperature 68 °F 61 °F 46 °F (2003)
Cooling Degree Days 11    
Growing Degree Days 26 (Base 50)    
Moisture  
Dew Point 68 °F    
Average Humidity 80    
Maximum Humidity 94    
Minimum Humidity 55    
Precipitation  
Precipitation 0.00 in - - ()
Sea Level Pressure  
Sea Level Pressure 29.98 in    
Wind  
Wind Speed 5 mph ()    
Max Wind Speed 12 mph    
Max Gust Speed -    
Visibility 7.6 miles    
Events      
Averages and records for this station are not official NWS values.
T = Trace of Precipitation, MM = Missing Value Source: Averaged Metar Reports

Daily Weather History Graph

Daily Weather History Graph

Search for Another Location

Airport or City:

Trip Planner

Search our weather history database for the weather conditions in past years. The results will help you decide how hot, cold, wet, or windy it might be!

Date:

Astronomy

Oct. 28, 2013 Rise Set
Actual Time 6:46 AM CST 6:01 PM CST
Civil Twilight 6:22 AM CST 6:25 PM CST
Nautical Twilight 5:55 AM CST 6:52 PM CST
Astronomical Twilight 5:28 AM CST 7:19 PM CST
Moon 1:15 AM CST (10/28) 2:13 PM CST (10/28)
Length of Visible Light 12h 02m
Length of Day
11h 14m
Waning Crescent, 33% of the Moon is Illuminated
Oct 28
Waning Crescent
Nov 3
New
Nov 9
First Quarter
Nov 17
Full
Nov 25
Last Quarter

Hourly Weather History & Observations

Time (CST) Temp. Heat Index Dew Point Humidity Pressure Visibility Wind Dir Wind Speed Gust Speed Precip Events Conditions
12:44 AM 84.2 °F 86.6 °F 66.2 °F 55% 29.99 in 5.0 mi Calm Calm - N/A   Mostly Cloudy
1:44 AM 68.0 °F - 66.2 °F 94% 29.98 in 5.0 mi Calm Calm - N/A   Overcast
2:50 AM 68.0 °F - 66.2 °F 94% 29.97 in 8.0 mi NE 4.6 mph - N/A   Mostly Cloudy
3:45 AM 68.0 °F - 66.2 °F 94% 29.96 in 8.0 mi ENE 6.9 mph - N/A   Mostly Cloudy
4:45 AM 68.0 °F - 66.2 °F 94% 29.96 in 8.0 mi ENE 6.9 mph - N/A   Mostly Cloudy
5:45 AM 69.8 °F - 66.2 °F 88% 29.95 in 8.0 mi East 5.8 mph - N/A   Mostly Cloudy
6:41 AM 69.8 °F - 66.2 °F 88% 29.98 in 5.0 mi East 5.8 mph - N/A   Overcast
7:30 AM 69.8 °F - 68.0 °F 94% 30.01 in 5.0 mi East 5.8 mph - N/A   Overcast
7:45 AM 69.8 °F - 68.0 °F 94% 30.01 in 5.0 mi ESE 5.8 mph - N/A   Overcast
8:45 AM 71.6 °F - 68.0 °F 88% 30.04 in 5.0 mi East 8.1 mph - N/A   Overcast
9:46 AM 71.6 °F - 68.0 °F 88% 30.04 in 5.0 mi ESE 8.1 mph - N/A   Overcast
10:45 AM 73.4 °F - 68.0 °F 83% 30.03 in 6.0 mi ESE 8.1 mph - N/A   Mostly Cloudy
11:45 AM 75.2 °F - 68.0 °F 78% 30.01 in 6.0 mi SE 10.4 mph - N/A   Mostly Cloudy
12:48 PM 77.0 °F - 68.0 °F 74% 29.99 in 6.0 mi ESE 8.1 mph - N/A   Mostly Cloudy
1:46 PM 80.6 °F 82.7 °F 66.2 °F 61% 29.96 in 6.0 mi SE 6.9 mph - N/A   Mostly Cloudy
2:50 PM 80.6 °F 82.7 °F 66.2 °F 61% 29.92 in 6.0 mi ESE 9.2 mph - N/A   Mostly Cloudy
3:45 PM 80.6 °F 83.2 °F 68.0 °F 65% 29.93 in 7.0 mi ESE 5.8 mph - N/A   Mostly Cloudy
4:57 PM 80.6 °F 83.9 °F 69.8 °F 70% 29.94 in 7.0 mi ESE 5.8 mph - N/A   Mostly Cloudy
5:45 PM 78.8 °F - 68.0 °F 69% 29.92 in 10.0 mi SE 5.8 mph - N/A   Mostly Cloudy
6:47 PM 77.0 °F - 68.0 °F 74% 29.95 in 10.0 mi ESE 4.6 mph - N/A   Mostly Cloudy
7:44 PM 75.2 °F - 68.0 °F 78% 29.97 in 12.0 mi SE 4.6 mph - N/A   Mostly Cloudy
8:45 PM 77.0 °F - 68.0 °F 74% 29.96 in 12.0 mi ESE 5.8 mph - N/A   Mostly Cloudy
9:40 PM 77.0 °F - 68.0 °F 74% 29.99 in 12.0 mi East 9.2 mph - N/A   Overcast
10:44 PM 75.2 °F - 69.8 °F 83% 30.00 in 12.0 mi ESE 9.2 mph - N/A   Overcast
11:45 PM 75.2 °F - 69.8 °F 83% 30.00 in 10.0 mi East 11.5 mph - N/A   Overcast